Wetterdaten: Montag, 06.07.2015
Datum Zeit Temp. A. Feuchte A. Luftdruck Regen Wind Richtung Richtung Sonnenschein ET UV Solar Taupunkt Windchill Windben Empfang
06.07.2015 00:00 20,5 C 71 % 1012,4 hPa 0,0 l/m 0,0 km/h (0 Bft) NO 39 0 min 0,000 mm 0,0 UV-I 0 W/m 15,1 C 20,5 C 0,0 km/h (0 Bft) 0,00 %
06.07.2015 00:05 20,4 C 72 % 1012,3 hPa 0,0 l/m 0,0 km/h (0 Bft) NO 49 0 min 0,000 mm 0,0 UV-I 0 W/m 15,2 C 20,4 C 0,0 km/h (0 Bft) 0,00 %
06.07.2015 00:10 20,1 C 73 % 1012,2 hPa 0,0 l/m 0,0 km/h (0 Bft) O-NO 58 0 min 0,000 mm 0,0 UV-I 0 W/m 15,1 C 20,1 C 0,0 km/h (0 Bft) 0,00 %
06.07.2015 00:15 19,9 C 73 % 1012,2 hPa 0,0 l/m 0,0 km/h (0 Bft) O-NO 64 0 min 0,000 mm 0,0 UV-I 0 W/m 14,9 C 19,9 C 0,0 km/h (0 Bft) 0,00 %
06.07.2015 00:20 19,9 C 73 % 1012,3 hPa 0,0 l/m 0,0 km/h (0 Bft) NO 53 0 min 0,000 mm 0,0 UV-I 0 W/m 14,9 C 19,9 C 0,0 km/h (0 Bft) 0,00 %
06.07.2015 00:25 19,8 C 73 % 1012,4 hPa 0,0 l/m 0,0 km/h (0 Bft) NO 51 0 min 0,000 mm 0,0 UV-I 0 W/m 14,8 C 19,8 C 0,0 km/h (0 Bft) 0,00 %
06.07.2015 00:30 19,8 C 74 % 1012,3 hPa 0,0 l/m 0,0 km/h (0 Bft) O-NO 60 0 min 0,000 mm 0,0 UV-I 0 W/m 15,0 C 19,8 C 0,0 km/h (0 Bft) 0,00 %
06.07.2015 00:35 19,7 C 77 % 1012,3 hPa 0,0 l/m 0,0 km/h (0 Bft) NO 52 0 min 0,000 mm 0,0 UV-I 0 W/m 15,5 C 19,7 C 0,0 km/h (0 Bft) 0,00 %
06.07.2015 00:40 19,6 C 78 % 1012,4 hPa 0,0 l/m 0,0 km/h (0 Bft) NO 52 0 min 0,000 mm 0,0 UV-I 0 W/m 15,7 C 19,6 C 0,0 km/h (0 Bft) 0,00 %
06.07.2015 00:45 19,5 C 77 % 1012,4 hPa 0,0 l/m 0,0 km/h (0 Bft) NO 52 0 min 0,000 mm 0,0 UV-I 0 W/m 15,4 C 19,5 C 0,0 km/h (0 Bft) 0,00 %
06.07.2015 00:50 19,2 C 79 % 1012,3 hPa 0,0 l/m 0,0 km/h (0 Bft) NO 48 0 min 0,000 mm 0,0 UV-I 0 W/m 15,5 C 19,2 C 0,0 km/h (0 Bft) 0,00 %
06.07.2015 00:55 19,1 C 80 % 1012,4 hPa 0,0 l/m 0,0 km/h (0 Bft) NO 37 0 min 0,000 mm 0,0 UV-I 0 W/m 15,6 C 19,1 C 0,0 km/h (0 Bft) 0,00 %
06.07.2015 01:00 19,1 C 81 % 1012,4 hPa 0,0 l/m 0,0 km/h (0 Bft) NO 36 0 min 0,000 mm 0,0 UV-I 0 W/m 15,8 C 19,1 C 0,0 km/h (0 Bft) 0,00 %
06.07.2015 01:05 19,0 C 81 % 1012,3 hPa 0,0 l/m 0,0 km/h (0 Bft) NO 53 0 min 0,000 mm 0,0 UV-I 0 W/m 15,7 C 19,0 C 0,0 km/h (0 Bft) 0,00 %
06.07.2015 01:10 18,9 C 81 % 1012,6 hPa 0,0 l/m 0,0 km/h (0 Bft) NO 34 0 min 0,000 mm 0,0 UV-I 0 W/m 15,6 C 18,9 C 0,0 km/h (0 Bft) 0,00 %
06.07.2015 01:15 18,8 C 81 % 1012,6 hPa 0,0 l/m 0,0 km/h (0 Bft) NO 56 0 min 0,000 mm 0,0 UV-I 0 W/m 15,5 C 18,8 C 0,0 km/h (0 Bft) 0,00 %
06.07.2015 01:20 18,6 C 81 % 1012,5 hPa 0,0 l/m 0,0 km/h (0 Bft) O-NO 58 0 min 0,000 mm 0,0 UV-I 0 W/m 15,3 C 18,6 C 0,0 km/h (0 Bft) 0,00 %
06.07.2015 01:25 18,6 C 82 % 1012,6 hPa 0,0 l/m 0,0 km/h (0 Bft) NO 44 0 min 0,000 mm 0,0 UV-I 0 W/m 15,5 C 18,6 C 0,0 km/h (0 Bft) 0,00 %
06.07.2015 01:30 18,5 C 82 % 1012,7 hPa 0,0 l/m 0,0 km/h (0 Bft) NO 44 0 min 0,000 mm 0,0 UV-I 0 W/m 15,4 C 18,5 C 0,0 km/h (0 Bft) 0,00 %
06.07.2015 01:35 18,5 C 82 % 1012,7 hPa 0,0 l/m 0,0 km/h (0 Bft) NO 44 0 min 0,000 mm 0,0 UV-I 0 W/m 15,4 C 18,5 C 0,0 km/h (0 Bft) 0,00 %
06.07.2015 01:40 18,4 C 82 % 1012,8 hPa 0,0 l/m 0,0 km/h (0 Bft) N 0 0 min 0,000 mm 0,0 UV-I 0 W/m 15,3 C 18,4 C 0,0 km/h (0 Bft) 0,00 %
06.07.2015 01:45 18,4 C 82 % 1012,7 hPa 0,0 l/m 0,0 km/h (0 Bft) N 0 0 min 0,000 mm 0,0 UV-I 0 W/m 15,3 C 18,4 C 0,0 km/h (0 Bft) 0,00 %
06.07.2015 01:50 18,3 C 82 % 1012,8 hPa 0,0 l/m 0,0 km/h (0 Bft) O-NO 58 0 min 0,000 mm 0,0 UV-I 0 W/m 15,2 C 18,3 C 0,0 km/h (0 Bft) 0,00 %
06.07.2015 01:55 18,2 C 83 % 1012,7 hPa 0,0 l/m 0,0 km/h (0 Bft) O-NO 60 0 min 0,000 mm 0,0 UV-I 0 W/m 15,3 C 18,2 C 0,0 km/h (0 Bft) 0,00 %
06.07.2015 02:00 18,1 C 83 % 1013,0 hPa 0,0 l/m 0,0 km/h (0 Bft) NO 52 0 min 0,000 mm 0,0 UV-I 0 W/m 15,2 C 18,1 C 0,0 km/h (0 Bft) 0,00 %
06.07.2015 02:05 18,0 C 83 % 1013,1 hPa 0,0 l/m 0,0 km/h (0 Bft) NO 45 0 min 0,000 mm 0,0 UV-I 0 W/m 15,1 C 18,0 C 0,0 km/h (0 Bft) 0,00 %
06.07.2015 02:10 18,0 C 83 % 1013,0 hPa 0,0 l/m 0,0 km/h (0 Bft) NO 49 0 min 0,000 mm 0,0 UV-I 0 W/m 15,1 C 18,0 C 0,0 km/h (0 Bft) 0,00 %
06.07.2015 02:15 18,0 C 83 % 1013,0 hPa 0,0 l/m 0,0 km/h (0 Bft) NO 54 0 min 0,000 mm 0,0 UV-I 0 W/m 15,1 C 18,0 C 0,0 km/h (0 Bft) 0,00 %
06.07.2015 02:20 18,0 C 83 % 1013,2 hPa 0,0 l/m 0,0 km/h (0 Bft) NO 54 0 min 0,000 mm 0,0 UV-I 0 W/m 15,1 C 18,0 C 0,0 km/h (0 Bft) 0,00 %
06.07.2015 02:25 18,0 C 83 % 1013,2 hPa 0,0 l/m 0,0 km/h (0 Bft) NO 54 0 min 0,000 mm 0,0 UV-I 0 W/m 15,1 C 18,0 C 0,0 km/h (0 Bft) 0,00 %
06.07.2015 02:30 18,0 C 84 % 1013,2 hPa 0,0 l/m 0,0 km/h (0 Bft) NO 54 0 min 0,000 mm 0,0 UV-I 0 W/m 15,3 C 18,0 C 0,0 km/h (0 Bft) 0,00 %
06.07.2015 02:35 18,0 C 85 % 1013,2 hPa 0,0 l/m 0,0 km/h (0 Bft) NO 54 0 min 0,000 mm 0,0 UV-I 0 W/m 15,4 C 18,0 C 0,0 km/h (0 Bft) 0,00 %
06.07.2015 02:40 17,9 C 85 % 1013,3 hPa 0,0 l/m 0,0 km/h (0 Bft) NO 54 0 min 0,000 mm 0,0 UV-I 0 W/m 15,3 C 17,9 C 0,0 km/h (0 Bft) 0,00 %
06.07.2015 02:45 17,8 C 85 % 1013,2 hPa 0,0 l/m 0,0 km/h (0 Bft) O-NO 61 0 min 0,000 mm 0,0 UV-I 0 W/m 15,2 C 17,8 C 0,0 km/h (0 Bft) 0,00 %
06.07.2015 02:50 17,6 C 85 % 1013,5 hPa 0,0 l/m 0,0 km/h (0 Bft) NO 53 0 min 0,000 mm 0,0 UV-I 0 W/m 15,0 C 17,6 C 0,0 km/h (0 Bft) 0,00 %
06.07.2015 02:55 17,6 C 85 % 1013,4 hPa 0,0 l/m 0,0 km/h (0 Bft) NO 43 0 min 0,000 mm 0,0 UV-I 0 W/m 15,0 C 17,6 C 0,0 km/h (0 Bft) 0,00 %
06.07.2015 03:00 17,6 C 85 % 1013,6 hPa 0,0 l/m 0,0 km/h (0 Bft) O-NO 60 0 min 0,000 mm 0,0 UV-I 0 W/m 15,0 C 17,6 C 0,0 km/h (0 Bft) 0,00 %
06.07.2015 03:05 17,7 C 85 % 1013,6 hPa 0,0 l/m 0,0 km/h (0 Bft) N-NO 33 0 min 0,000 mm 0,0 UV-I 0 W/m 15,1 C 17,7 C 0,0 km/h (0 Bft) 0,00 %
06.07.2015 03:10 17,7 C 85 % 1013,8 hPa 0,0 l/m 0,0 km/h (0 Bft) NO 34 0 min 0,000 mm 0,0 UV-I 0 W/m 15,1 C 17,7 C 0,0 km/h (0 Bft) 0,00 %
06.07.2015 03:15 17,7 C 85 % 1013,8 hPa 0,0 l/m 0,0 km/h (0 Bft) NO 46 0 min 0,000 mm 0,0 UV-I 0 W/m 15,1 C 17,7 C 0,0 km/h (0 Bft) 0,00 %
06.07.2015 03:20 17,7 C 85 % 1013,8 hPa 0,0 l/m 0,0 km/h (0 Bft) NO 45 0 min 0,000 mm 0,0 UV-I 0 W/m 15,1 C 17,7 C 0,0 km/h (0 Bft) 0,00 %
06.07.2015 03:25 17,8 C 85 % 1013,7 hPa 0,0 l/m 0,0 km/h (0 Bft) NO 45 0 min 0,000 mm 0,0 UV-I 0 W/m 15,2 C 17,8 C 0,0 km/h (0 Bft) 0,00 %
06.07.2015 03:30 17,7 C 85 % 1013,6 hPa 0,0 l/m 0,0 km/h (0 Bft) NO 48 0 min 0,000 mm 0,0 UV-I 0 W/m 15,1 C 17,7 C 0,0 km/h (0 Bft) 0,00 %
06.07.2015 03:35 17,7 C 85 % 1013,7 hPa 0,0 l/m 0,0 km/h (0 Bft) O-NO 69 0 min 0,000 mm 0,0 UV-I 0 W/m 15,1 C 17,7 C 0,0 km/h (0 Bft) 0,00 %
06.07.2015 03:40 17,7 C 85 % 1013,9 hPa 0,0 l/m 0,0 km/h (0 Bft) N-NO 25 0 min 0,000 mm 0,0 UV-I 0 W/m 15,1 C 17,7 C 0,0 km/h (0 Bft) 0,00 %
06.07.2015 03:45 17,7 C 85 % 1013,8 hPa 0,0 l/m 0,0 km/h (0 Bft) NO 44 0 min 0,000 mm 0,0 UV-I 0 W/m 15,1 C 17,7 C 0,0 km/h (0 Bft) 0,00 %
06.07.2015 03:50 17,7 C 85 % 1013,9 hPa 0,0 l/m 0,0 km/h (0 Bft) NO 36 0 min 0,000 mm 0,0 UV-I 0 W/m 15,1 C 17,7 C 0,0 km/h (0 Bft) 0,00 %
06.07.2015 03:55 17,6 C 86 % 1013,8 hPa 0,0 l/m 0,0 km/h (0 Bft) NO 38 0 min 0,000 mm 0,0 UV-I 0 W/m 15,2 C 17,6 C 0,0 km/h (0 Bft) 0,00 %
06.07.2015 04:00 17,5 C 86 % 1013,9 hPa 0,0 l/m 0,0 km/h (0 Bft) NO 42 0 min 0,000 mm 0,0 UV-I 0 W/m 15,1 C 17,5 C 0,0 km/h (0 Bft) 0,00 %
06.07.2015 04:05 17,5 C 86 % 1014,0 hPa 0,0 l/m 0,0 km/h (0 Bft) NO 42 0 min 0,000 mm 0,0 UV-I 0 W/m 15,1 C 17,5 C 0,0 km/h (0 Bft) 0,00 %
06.07.2015 04:10 17,5 C 87 % 1013,7 hPa 0,0 l/m 0,0 km/h (0 Bft) N-NO 33 0 min 0,000 mm 0,0 UV-I 0 W/m 15,3 C 17,5 C 0,0 km/h (0 Bft) 0,00 %
06.07.2015 04:15 17,5 C 86 % 1013,8 hPa 0,0 l/m 0,0 km/h (0 Bft) NO 36 0 min 0,000 mm 0,0 UV-I 0 W/m 15,1 C 17,5 C 0,0 km/h (0 Bft) 0,00 %
06.07.2015 04:20 17,6 C 85 % 1013,7 hPa 0,0 l/m 0,0 km/h (0 Bft) NO 38 0 min 0,000 mm 0,0 UV-I 0 W/m 15,0 C 17,6 C 0,0 km/h (0 Bft) 0,00 %
06.07.2015 04:25 17,7 C 85 % 1013,8 hPa 0,0 l/m 0,0 km/h (0 Bft) NO 42 0 min 0,000 mm 0,0 UV-I 0 W/m 15,1 C 17,7 C 0,0 km/h (0 Bft) 0,00 %
06.07.2015 04:30 17,8 C 84 % 1013,8 hPa 0,0 l/m 0,0 km/h (0 Bft) NO 41 0 min 0,000 mm 0,0 UV-I 0 W/m 15,1 C 17,8 C 0,0 km/h (0 Bft) 0,00 %
06.07.2015 04:35 17,8 C 83 % 1013,8 hPa 0,0 l/m 0,0 km/h (0 Bft) NO 43 0 min 0,000 mm 0,0 UV-I 0 W/m 14,9 C 17,8 C 0,0 km/h (0 Bft) 0,00 %
06.07.2015 04:40 17,9 C 83 % 1014,0 hPa 0,0 l/m 0,0 km/h (0 Bft) NO 37 0 min 0,000 mm 0,0 UV-I 0 W/m 15,0 C 17,9 C 0,0 km/h (0 Bft) 0,00 %
06.07.2015 04:45 17,9 C 85 % 1013,9 hPa 0,0 l/m 0,0 km/h (0 Bft) N-NO 29 0 min 0,000 mm 0,0 UV-I 0 W/m 15,3 C 17,9 C 0,0 km/h (0 Bft) 0,00 %
06.07.2015 04:50 17,8 C 85 % 1014,0 hPa 0,0 l/m 0,0 km/h (0 Bft) NO 38 0 min 0,000 mm 0,0 UV-I 0 W/m 15,2 C 17,8 C 0,0 km/h (0 Bft) 0,00 %
06.07.2015 04:55 17,7 C 85 % 1014,0 hPa 0,0 l/m 0,0 km/h (0 Bft) N-NW 346 0 min 0,000 mm 0,0 UV-I 0 W/m 15,1 C 17,7 C 0,0 km/h (0 Bft) 0,00 %
06.07.2015 05:00 17,5 C 86 % 1014,2 hPa 0,0 l/m 0,0 km/h (0 Bft) NO 51 0 min 0,000 mm 0,0 UV-I 0 W/m 15,1 C 17,5 C 0,0 km/h (0 Bft) 0,00 %
06.07.2015 05:05 17,4 C 85 % 1014,1 hPa 0,0 l/m 0,0 km/h (0 Bft) NO 45 0 min 0,000 mm 0,0 UV-I 0 W/m 14,8 C 17,4 C 0,0 km/h (0 Bft) 0,00 %
06.07.2015 05:10 17,4 C 85 % 1014,2 hPa 0,0 l/m 0,0 km/h (0 Bft) NO 42 0 min 0,000 mm 0,0 UV-I 0 W/m 14,8 C 17,4 C 0,0 km/h (0 Bft) 0,00 %
06.07.2015 05:15 17,5 C 85 % 1014,4 hPa 0,0 l/m 0,0 km/h (0 Bft) N 4 0 min 0,000 mm 0,0 UV-I 0 W/m 14,9 C 17,5 C 0,0 km/h (0 Bft) 0,00 %
06.07.2015 05:20 17,6 C 84 % 1014,4 hPa 0,0 l/m 0,0 km/h (0 Bft) O-NO 68 0 min 0,000 mm 0,0 UV-I 1 W/m 14,9 C 17,6 C 0,0 km/h (0 Bft) 0,00 %
06.07.2015 05:25 17,8 C 82 % 1014,6 hPa 0,0 l/m 0,0 km/h (0 Bft) NO 43 0 min 0,000 mm 0,0 UV-I 5 W/m 14,7 C 17,8 C 0,0 km/h (0 Bft) 0,00 %
06.07.2015 05:30 18,2 C 80 % 1014,5 hPa 0,0 l/m 0,0 km/h (0 Bft) NO 51 0 min 0,000 mm 0,0 UV-I 10 W/m 14,7 C 18,2 C 0,0 km/h (0 Bft) 0,00 %
06.07.2015 05:35 18,6 C 76 % 1014,5 hPa 0,0 l/m 0,4 km/h (0 Bft) N-NW 339 0 min 0,000 mm 0,0 UV-I 19 W/m 14,3 C 18,6 C 4,0 km/h (1 Bft) 0,00 %
06.07.2015 05:40 19,0 C 75 % 1014,5 hPa 0,0 l/m 0,0 km/h (0 Bft) NO 44 0 min 0,000 mm 0,0 UV-I 24 W/m 14,5 C 19,0 C 0,0 km/h (0 Bft) 0,00 %
06.07.2015 05:45 19,2 C 75 % 1014,4 hPa 0,0 l/m 1,8 km/h (1 Bft) NO 40 0 min 0,000 mm 0,0 UV-I 29 W/m 14,7 C 19,2 C 4,0 km/h (1 Bft) 0,00 %
06.07.2015 05:50 19,5 C 74 % 1014,6 hPa 0,0 l/m 6,5 km/h (2 Bft) W-NW 299 0 min 0,000 mm 0,0 UV-I 39 W/m 14,7 C 19,5 C 11,9 km/h (2 Bft) 0,00 %
06.07.2015 05:55 19,9 C 72 % 1014,9 hPa 0,0 l/m 0,7 km/h (0 Bft) W-NW 285 0 min 0,000 mm 0,0 UV-I 50 W/m 14,7 C 19,9 C 4,0 km/h (1 Bft) 0,00 %
06.07.2015 06:00 20,3 C 70 % 1014,9 hPa 0,0 l/m 6,5 km/h (2 Bft) W-NW 298 5 min 0,000 mm 0,0 UV-I 60 W/m 14,6 C 20,3 C 11,9 km/h (2 Bft) 0,00 %
06.07.2015 06:05 20,8 C 68 % 1014,8 hPa 0,0 l/m 4,7 km/h (1 Bft) NW 323 5 min 0,000 mm 0,0 UV-I 75 W/m 14,7 C 20,8 C 7,9 km/h (2 Bft) 0,00 %
06.07.2015 06:10 21,2 C 68 % 1014,8 hPa 0,0 l/m 1,8 km/h (1 Bft) NW 316 5 min 0,000 mm 0,0 UV-I 107 W/m 15,1 C 21,2 C 4,0 km/h (1 Bft) 0,00 %
06.07.2015 06:15 21,5 C 69 % 1014,8 hPa 0,0 l/m 0,7 km/h (0 Bft) W-SW 256 5 min 0,000 mm 0,0 UV-I 111 W/m 15,6 C 21,5 C 4,0 km/h (1 Bft) 0,00 %
06.07.2015 06:20 21,6 C 68 % 1015,0 hPa 0,0 l/m 1,8 km/h (1 Bft) N-NO 23 5 min 0,000 mm 0,0 UV-I 113 W/m 15,4 C 21,6 C 4,0 km/h (1 Bft) 0,00 %
06.07.2015 06:25 21,7 C 68 % 1015,1 hPa 0,0 l/m 2,9 km/h (1 Bft) N 356 5 min 0,000 mm 0,0 UV-I 117 W/m 15,5 C 21,7 C 4,0 km/h (1 Bft) 0,00 %
06.07.2015 06:30 22,0 C 67 % 1015,1 hPa 0,0 l/m 0,0 km/h (0 Bft) NO 39 5 min 0,000 mm 1,0 UV-I 145 W/m 15,6 C 22,0 C 0,0 km/h (0 Bft) 0,00 %
06.07.2015 06:35 22,4 C 66 % 1015,1 hPa 0,0 l/m 7,9 km/h (2 Bft) W-NW 288 5 min 0,000 mm 1,0 UV-I 157 W/m 15,7 C 21,9 C 11,9 km/h (2 Bft) 0,00 %
06.07.2015 06:40 22,7 C 65 % 1015,1 hPa 0,0 l/m 9,4 km/h (2 Bft) NW 313 5 min 0,000 mm 1,0 UV-I 188 W/m 15,8 C 21,8 C 15,8 km/h (3 Bft) 0,00 %
06.07.2015 06:45 22,9 C 65 % 1016,3 hPa 0,0 l/m 15,5 km/h (3 Bft) W-SW 256 5 min 0,000 mm 1,0 UV-I 211 W/m 16,0 C 20,7 C 19,8 km/h (3 Bft) 0,00 %
06.07.2015 06:50 23,2 C 65 % 1016,1 hPa 0,0 l/m 6,8 km/h (2 Bft) W-SW 256 5 min 0,000 mm 1,0 UV-I 220 W/m 16,2 C 23,1 C 11,9 km/h (2 Bft) 0,00 %
06.07.2015 06:55 23,6 C 63 % 1016,3 hPa 0,0 l/m 2,2 km/h (1 Bft) N 354 5 min 0,000 mm 1,0 UV-I 245 W/m 16,1 C 23,6 C 4,0 km/h (1 Bft) 0,00 %
06.07.2015 07:00 24,0 C 63 % 1016,2 hPa 0,0 l/m 13,3 km/h (3 Bft) W 275 5 min 0,000 mm 1,0 UV-I 233 W/m 16,5 C 22,4 C 15,8 km/h (3 Bft) 0,00 %
06.07.2015 07:05 24,3 C 63 % 1016,3 hPa 0,0 l/m 11,5 km/h (2 Bft) W-SW 256 5 min 0,000 mm 1,0 UV-I 273 W/m 16,8 C 23,1 C 11,9 km/h (2 Bft) 0,00 %
06.07.2015 07:10 24,5 C 62 % 1016,3 hPa 0,0 l/m 9,4 km/h (2 Bft) W-NW 286 5 min 0,000 mm 1,0 UV-I 198 W/m 16,7 C 23,7 C 11,9 km/h (2 Bft) 0,00 %
06.07.2015 07:15 24,7 C 61 % 1016,5 hPa 0,0 l/m 6,5 km/h (2 Bft) NW 317 5 min 0,000 mm 1,0 UV-I 281 W/m 16,7 C 24,7 C 7,9 km/h (2 Bft) 0,00 %
06.07.2015 07:20 24,9 C 61 % 1016,5 hPa 0,0 l/m 7,9 km/h (2 Bft) N 351 5 min 0,000 mm 1,0 UV-I 217 W/m 16,8 C 24,5 C 11,9 km/h (2 Bft) 0,00 %
06.07.2015 07:25 25,0 C 60 % 1016,8 hPa 0,0 l/m 2,2 km/h (1 Bft) NO 55 5 min 0,000 mm 1,0 UV-I 237 W/m 16,7 C 25,0 C 4,0 km/h (1 Bft) 0,00 %
06.07.2015 07:30 25,2 C 60 % 1016,8 hPa 0,0 l/m 11,9 km/h (2 Bft) W-NW 302 5 min 0,000 mm 1,0 UV-I 290 W/m 16,9 C 24,0 C 19,8 km/h (3 Bft) 0,00 %
06.07.2015 07:35 25,3 C 59 % 1016,8 hPa 0,0 l/m 13,0 km/h (3 Bft) NW 325 5 min 0,000 mm 1,0 UV-I 311 W/m 16,7 C 24,0 C 19,8 km/h (3 Bft) 0,00 %
06.07.2015 07:40 25,3 C 60 % 1016,8 hPa 0,0 l/m 7,2 km/h (2 Bft) N-NW 338 5 min 0,000 mm 1,0 UV-I 232 W/m 17,0 C 25,1 C 11,9 km/h (2 Bft) 0,00 %
06.07.2015 07:45 25,2 C 59 % 1017,3 hPa 0,0 l/m 12,2 km/h (2 Bft) NW 310 5 min 0,000 mm 1,0 UV-I 250 W/m 16,6 C 24,0 C 15,8 km/h (3 Bft) 0,00 %
06.07.2015 07:50 25,2 C 59 % 1017,5 hPa 0,0 l/m 6,5 km/h (2 Bft) W-SW 258 5 min 0,000 mm 1,0 UV-I 297 W/m 16,6 C 25,2 C 11,9 km/h (2 Bft) 0,00 %
06.07.2015 07:55 25,2 C 60 % 1017,8 hPa 0,0 l/m 17,3 km/h (3 Bft) W-NW 292 0 min 0,000 mm 1,0 UV-I 112 W/m 16,9 C 23,2 C 24,1 km/h (4 Bft) 0,00 %
06.07.2015 08:00 24,8 C 64 % 1017,7 hPa 0,0 l/m 5,4 km/h (1 Bft) O-SO 117 0 min 0,000 mm 0,0 UV-I 92 W/m 17,5 C 24,8 C 11,9 km/h (2 Bft) 0,00 %
06.07.2015 08:05 23,9 C 71 % 1018,0 hPa 0,0 l/m 4,7 km/h (1 Bft) N 349 0 min 0,000 mm 1,0 UV-I 85 W/m 18,3 C 23,9 C 7,9 km/h (2 Bft) 0,00 %
06.07.2015 08:10 22,8 C 75 % 1018,2 hPa 0,0 l/m 11,5 km/h (2 Bft) O-NO 67 0 min 0,000 mm 1,0 UV-I 94 W/m 18,1 C 21,4 C 15,8 km/h (3 Bft) 0,00 %
06.07.2015 08:15 22,1 C 79 % 1018,6 hPa 0,0 l/m 11,5 km/h (2 Bft) S 172 0 min 0,000 mm 1,0 UV-I 108 W/m 18,3 C 20,6 C 15,8 km/h (3 Bft) 0,00 %
06.07.2015 08:20 21,5 C 81 % 1018,6 hPa 0,0 l/m 6,5 km/h (2 Bft) W-NW 282 0 min 0,000 mm 1,0 UV-I 136 W/m 18,1 C 21,5 C 11,9 km/h (2 Bft) 0,00 %
06.07.2015 08:25 21,2 C 82 % 1018,8 hPa 0,0 l/m 15,8 km/h (3 Bft) W-SW 256 0 min 0,000 mm 1,0 UV-I 163 W/m 18,0 C 18,5 C 19,8 km/h (3 Bft) 0,00 %
06.07.2015 08:30 21,1 C 81 % 1019,0 hPa 0,0 l/m 7,2 km/h (2 Bft) N 357 0 min 0,000 mm 1,0 UV-I 177 W/m 17,7 C 20,8 C 11,9 km/h (2 Bft) 0,00 %
06.07.2015 08:35 21,2 C 80 % 1018,9 hPa 0,0 l/m 0,7 km/h (0 Bft) N-NW 347 0 min 0,000 mm 1,0 UV-I 177 W/m 17,6 C 21,2 C 4,0 km/h (1 Bft) 0,00 %
06.07.2015 08:40 21,3 C 78 % 1018,8 hPa 0,0 l/m 2,9 km/h (1 Bft) O-NO 62 0 min 0,000 mm 1,0 UV-I 173 W/m 17,3 C 21,3 C 7,9 km/h (2 Bft) 0,00 %
06.07.2015 08:45 21,4 C 76 % 1018,9 hPa 0,0 l/m 12,2 km/h (2 Bft) S-SW 212 0 min 0,000 mm 1,0 UV-I 204 W/m 17,0 C 19,6 C 15,8 km/h (3 Bft) 0,00 %
06.07.2015 08:50 21,6 C 74 % 1018,8 hPa 0,0 l/m 7,2 km/h (2 Bft) W 262 0 min 0,000 mm 1,0 UV-I 246 W/m 16,8 C 21,3 C 11,9 km/h (2 Bft) 0,00 %
06.07.2015 08:55 21,9 C 73 % 1019,0 hPa 0,0 l/m 9,0 km/h (2 Bft) W-NW 284 0 min 0,000 mm 2,0 UV-I 271 W/m 16,8 C 21,0 C 11,9 km/h (2 Bft) 0,00 %
06.07.2015 09:00 22,1 C 72 % 1019,0 hPa 0,0 l/m 1,4 km/h (1 Bft) N-NO 22 0 min 0,000 mm 2,0 UV-I 295 W/m 16,8 C 22,1 C 4,0 km/h (1 Bft) 0,00 %
06.07.2015 09:05 22,2 C 72 % 1018,4 hPa 0,0 l/m 0,4 km/h (0 Bft) NO 54 0 min 0,000 mm 2,0 UV-I 286 W/m 16,9 C 22,2 C 4,0 km/h (1 Bft) 0,00 %
06.07.2015 09:10 22,8 C 68 % 1018,7 hPa 0,0 l/m 4,0 km/h (1 Bft) N-NW 331 0 min 0,000 mm 1,0 UV-I 302 W/m 16,6 C 22,8 C 7,9 km/h (2 Bft) 0,00 %
06.07.2015 09:15 22,9 C 68 % 1019,0 hPa 0,0 l/m 4,3 km/h (1 Bft) N-NO 22 0 min 0,000 mm 1,0 UV-I 200 W/m 16,7 C 22,9 C 7,9 km/h (2 Bft) 0,00 %
06.07.2015 09:20 22,9 C 70 % 1018,9 hPa 0,0 l/m 4,3 km/h (1 Bft) S-SW 212 0 min 0,000 mm 1,0 UV-I 161 W/m 17,1 C 22,9 C 7,9 km/h (2 Bft) 0,00 %
06.07.2015 09:25 22,7 C 70 % 1019,0 hPa 0,0 l/m 12,2 km/h (2 Bft) W 281 0 min 0,000 mm 1,0 UV-I 161 W/m 16,9 C 21,1 C 15,8 km/h (3 Bft) 0,00 %
06.07.2015 09:30 22,4 C 71 % 1018,9 hPa 0,0 l/m 3,2 km/h (1 Bft) N-NO 23 0 min 0,000 mm 1,0 UV-I 200 W/m 16,9 C 22,4 C 4,0 km/h (1 Bft) 0,00 %
06.07.2015 09:35 22,4 C 70 % 1018,9 hPa 0,0 l/m 4,7 km/h (1 Bft) W-SW 256 0 min 0,000 mm 1,0 UV-I 232 W/m 16,7 C 22,4 C 7,9 km/h (2 Bft) 0,00 %
06.07.2015 09:40 22,5 C 72 % 1019,1 hPa 0,0 l/m 3,2 km/h (1 Bft) NW 304 0 min 0,000 mm 1,0 UV-I 247 W/m 17,2 C 22,5 C 4,0 km/h (1 Bft) 0,00 %
06.07.2015 09:45 22,7 C 71 % 1019,3 hPa 0,0 l/m 2,2 km/h (1 Bft) W-NW 290 0 min 0,000 mm 1,0 UV-I 269 W/m 17,2 C 22,7 C 4,0 km/h (1 Bft) 0,00 %
06.07.2015 09:50 22,9 C 70 % 1019,3 hPa 0,0 l/m 0,7 km/h (0 Bft) NW 311 0 min 0,000 mm 1,0 UV-I 285 W/m 17,1 C 22,9 C 4,0 km/h (1 Bft) 0,00 %
06.07.2015 09:55 23,0 C 70 % 1019,2 hPa 0,0 l/m 1,8 km/h (1 Bft) N-NW 346 0 min 0,000 mm 2,0 UV-I 298 W/m 17,2 C 23,0 C 4,0 km/h (1 Bft) 0,00 %
06.07.2015 10:00 23,0 C 70 % 1019,2 hPa 0,0 l/m 4,0 km/h (1 Bft) NO 37 0 min 0,000 mm 2,0 UV-I 325 W/m 17,2 C 23,0 C 4,0 km/h (1 Bft) 0,00 %
06.07.2015 10:05 22,9 C 70 % 1019,3 hPa 0,0 l/m 2,2 km/h (1 Bft) W-SW 256 0 min 0,000 mm 2,0 UV-I 340 W/m 17,1 C 22,9 C 7,9 km/h (2 Bft) 0,00 %
06.07.2015 10:10 23,0 C 70 % 1019,2 hPa 0,0 l/m 4,7 km/h (1 Bft) W-NW 297 0 min 0,000 mm 2,0 UV-I 349 W/m 17,2 C 23,0 C 7,9 km/h (2 Bft) 0,00 %
06.07.2015 10:15 23,0 C 70 % 1019,3 hPa 0,0 l/m 2,9 km/h (1 Bft) W-SW 246 0 min 0,000 mm 2,0 UV-I 345 W/m 17,2 C 23,0 C 4,0 km/h (1 Bft) 0,00 %
06.07.2015 10:20 23,2 C 68 % 1019,0 hPa 0,0 l/m 5,4 km/h (1 Bft) N-NW 335 0 min 0,000 mm 2,0 UV-I 357 W/m 17,0 C 23,2 C 7,9 km/h (2 Bft) 0,00 %
06.07.2015 10:25 23,3 C 67 % 1019,1 hPa 0,0 l/m 1,4 km/h (1 Bft) N 10 0 min 0,000 mm 2,0 UV-I 360 W/m 16,8 C 23,3 C 4,0 km/h (1 Bft) 0,00 %
06.07.2015 10:30 23,5 C 66 % 1019,0 hPa 0,0 l/m 7,2 km/h (2 Bft) W-SW 255 0 min 0,000 mm 2,0 UV-I 363 W/m 16,8 C 23,3 C 11,9 km/h (2 Bft) 0,00 %
06.07.2015 10:35 23,6 C 65 % 1018,8 hPa 0,0 l/m 0,7 km/h (0 Bft) N-NO 20 0 min 0,000 mm 2,0 UV-I 385 W/m 16,6 C 23,6 C 4,0 km/h (1 Bft) 0,00 %
06.07.2015 10:40 23,8 C 64 % 1018,8 hPa 0,0 l/m 6,5 km/h (2 Bft) NO 47 0 min 0,000 mm 2,0 UV-I 402 W/m 16,6 C 23,8 C 11,9 km/h (2 Bft) 0,00 %
06.07.2015 10:45 23,9 C 63 % 1018,8 hPa 0,0 l/m 5,8 km/h (2 Bft) W 262 0 min 0,000 mm 2,0 UV-I 410 W/m 16,4 C 23,9 C 7,9 km/h (2 Bft) 0,00 %
06.07.2015 10:50 24,2 C 63 % 1018,7 hPa 0,0 l/m 5,4 km/h (1 Bft) W-NW 296 5 min 0,000 mm 3,0 UV-I 594 W/m 16,7 C 24,2 C 7,9 km/h (2 Bft) 0,00 %
06.07.2015 10:55 24,6 C 61 % 1018,5 hPa 0,0 l/m 6,8 km/h (2 Bft) N-NO 30 5 min 0,000 mm 4,0 UV-I 794 W/m 16,6 C 24,5 C 11,9 km/h (2 Bft) 0,00 %
06.07.2015 11:00 25,2 C 59 % 1018,4 hPa 0,0 l/m 1,8 km/h (1 Bft) W-SW 256 5 min 0,000 mm 4,0 UV-I 707 W/m 16,6 C 25,2 C 4,0 km/h (1 Bft) 0,00 %
06.07.2015 11:05 26,0 C 57 % 1018,2 hPa 0,0 l/m 0,4 km/h (0 Bft) NO 53 0 min 0,000 mm 2,0 UV-I 428 W/m 16,8 C 26,0 C 4,0 km/h (1 Bft) 0,00 %
06.07.2015 11:10 26,3 C 57 % 1018,4 hPa 0,0 l/m 4,0 km/h (1 Bft) N-NO 28 0 min 0,000 mm 2,0 UV-I 388 W/m 17,1 C 26,3 C 7,9 km/h (2 Bft) 0,00 %
06.07.2015 11:15 26,2 C 60 % 1018,5 hPa 0,0 l/m 2,2 km/h (1 Bft) NO 43 0 min 0,000 mm 2,0 UV-I 396 W/m 17,8 C 26,2 C 7,9 km/h (2 Bft) 0,00 %
06.07.2015 11:20 25,9 C 59 % 1018,4 hPa 0,0 l/m 2,9 km/h (1 Bft) W-NW 286 0 min 0,000 mm 2,0 UV-I 389 W/m 17,3 C 25,9 C 4,0 km/h (1 Bft) 0,00 %
06.07.2015 11:25 25,6 C 61 % 1018,4 hPa 0,0 l/m 9,4 km/h (2 Bft) W-SW 255 0 min 0,000 mm 2,0 UV-I 410 W/m 17,5 C 24,9 C 15,8 km/h (3 Bft) 0,00 %
06.07.2015 11:30 25,6 C 61 % 1018,3 hPa 0,0 l/m 0,4 km/h (0 Bft) N 4 5 min 0,000 mm 3,0 UV-I 532 W/m 17,5 C 25,6 C 4,0 km/h (1 Bft) 0,00 %
06.07.2015 11:35 25,9 C 59 % 1018,1 hPa 0,0 l/m 11,9 km/h (2 Bft) W-SW 256 5 min 0,000 mm 4,0 UV-I 476 W/m 17,3 C 24,8 C 15,8 km/h (3 Bft) 0,00 %
06.07.2015 11:40 26,3 C 59 % 1018,3 hPa 0,0 l/m 1,8 km/h (1 Bft) NW 304 5 min 0,000 mm 4,0 UV-I 711 W/m 17,6 C 26,3 C 4,0 km/h (1 Bft) 0,00 %
06.07.2015 11:45 26,7 C 56 % 1018,2 hPa 0,0 l/m 9,0 km/h (2 Bft) W 268 5 min 0,000 mm 4,0 UV-I 774 W/m 17,2 C 26,2 C 15,8 km/h (3 Bft) 0,00 %
06.07.2015 11:50 27,0 C 56 % 1018,0 hPa 0,0 l/m 1,8 km/h (1 Bft) NW 322 5 min 0,000 mm 5,0 UV-I 753 W/m 17,5 C 27,0 C 4,0 km/h (1 Bft) 0,00 %
06.07.2015 11:55 27,3 C 55 % 1018,0 hPa 0,0 l/m 0,4 km/h (0 Bft) N-NO 26 0 min 0,000 mm 3,0 UV-I 446 W/m 17,4 C 27,3 C 4,0 km/h (1 Bft) 0,00 %
06.07.2015 12:00 27,3 C 55 % 1017,9 hPa 0,0 l/m 2,2 km/h (1 Bft) NO 48 5 min 0,000 mm 4,0 UV-I 695 W/m 17,4 C 27,3 C 4,0 km/h (1 Bft) 0,00 %
06.07.2015 12:05 27,3 C 55 % 1018,1 hPa 0,0 l/m 0,7 km/h (0 Bft) O 82 5 min 0,000 mm 4,0 UV-I 660 W/m 17,4 C 27,3 C 4,0 km/h (1 Bft) 0,00 %
06.07.2015 12:10 27,5 C 55 % 1017,9 hPa 0,0 l/m 0,7 km/h (0 Bft) NO 45 5 min 0,000 mm 4,0 UV-I 683 W/m 17,6 C 27,5 C 4,0 km/h (1 Bft) 0,00 %
06.07.2015 12:15 27,7 C 55 % 1017,7 hPa 0,0 l/m 2,9 km/h (1 Bft) W 260 5 min 0,000 mm 4,0 UV-I 856 W/m 17,8 C 27,7 C 4,0 km/h (1 Bft) 0,00 %
06.07.2015 12:20 27,8 C 53 % 1017,7 hPa 0,0 l/m 3,2 km/h (1 Bft) N 350 5 min 0,000 mm 4,0 UV-I 888 W/m 17,3 C 27,8 C 7,9 km/h (2 Bft) 0,00 %
06.07.2015 12:25 27,9 C 53 % 1017,8 hPa 0,0 l/m 3,2 km/h (1 Bft) NW 326 5 min 0,000 mm 5,0 UV-I 819 W/m 17,4 C 27,9 C 7,9 km/h (2 Bft) 0,00 %
06.07.2015 12:30 28,3 C 52 % 1017,7 hPa 0,0 l/m 2,2 km/h (1 Bft) O-SO 114 5 min 0,000 mm 3,0 UV-I 597 W/m 17,5 C 28,3 C 4,0 km/h (1 Bft) 0,00 %
06.07.2015 12:35 28,4 C 54 % 1017,8 hPa 0,0 l/m 0,4 km/h (0 Bft) N-NO 25 0 min 0,000 mm 2,0 UV-I 369 W/m 18,2 C 28,4 C 4,0 km/h (1 Bft) 0,00 %
06.07.2015 12:40 28,1 C 54 % 1017,8 hPa 0,0 l/m 2,2 km/h (1 Bft) W-NW 285 0 min 0,000 mm 2,0 UV-I 373 W/m 17,9 C 28,1 C 4,0 km/h (1 Bft) 0,00 %
06.07.2015 12:45 27,8 C 55 % 1017,8 hPa 0,0 l/m 0,7 km/h (0 Bft) NW 325 0 min 0,000 mm 3,0 UV-I 405 W/m 17,9 C 27,8 C 4,0 km/h (1 Bft) 0,00 %
06.07.2015 12:50 27,5 C 56 % 1017,7 hPa 0,0 l/m 0,0 km/h (0 Bft) O-NO 57 5 min 0,000 mm 2,0 UV-I 491 W/m 17,9 C 27,5 C 0,0 km/h (0 Bft) 0,00 %
06.07.2015 12:55 27,5 C 57 % 1017,7 hPa 0,0 l/m 0,0 km/h (0 Bft) NO 44 5 min 0,000 mm 3,0 UV-I 857 W/m 18,2 C 27,5 C 0,0 km/h (0 Bft) 0,00 %
06.07.2015 13:00 27,7 C 55 % 1017,6 hPa 0,0 l/m 0,4 km/h (0 Bft) N-NW 339 0 min 0,000 mm 3,0 UV-I 416 W/m 17,8 C 27,7 C 4,0 km/h (1 Bft) 0,00 %
06.07.2015 13:05 28,1 C 55 % 1017,6 hPa 0,0 l/m 0,7 km/h (0 Bft) O 93 5 min 0,000 mm 4,0 UV-I 929 W/m 18,2 C 28,1 C 4,0 km/h (1 Bft) 0,00 %
06.07.2015 13:10 28,4 C 54 % 1017,7 hPa 0,0 l/m 0,0 km/h (0 Bft) N-NW 347 5 min 0,000 mm 5,0 UV-I 936 W/m 18,2 C 28,4 C 0,0 km/h (0 Bft) 0,00 %
06.07.2015 13:15 28,7 C 54 % 1017,4 hPa 0,0 l/m 1,8 km/h (1 Bft) W-NW 287 0 min 0,000 mm 2,0 UV-I 365 W/m 18,5 C 28,7 C 4,0 km/h (1 Bft) 0,00 %
06.07.2015 13:20 29,1 C 52 % 1017,3 hPa 0,0 l/m 2,9 km/h (1 Bft) W-NW 294 5 min 0,000 mm 5,0 UV-I 904 W/m 18,2 C 29,1 C 4,0 km/h (1 Bft) 0,00 %
06.07.2015 13:25 29,2 C 51 % 1017,3 hPa 0,0 l/m 7,9 km/h (2 Bft) W-SW 255 5 min 0,000 mm 5,0 UV-I 1028 W/m 18,0 C 29,0 C 11,9 km/h (2 Bft) 0,00 %
06.07.2015 13:30 29,3 C 52 % 1017,3 hPa 0,0 l/m 0,7 km/h (0 Bft) N-NW 338 5 min 0,000 mm 5,0 UV-I 1022 W/m 18,4 C 29,3 C 4,0 km/h (1 Bft) 0,00 %
06.07.2015 13:35 29,6 C 50 % 1017,4 hPa 0,0 l/m 0,0 km/h (0 Bft) N 356 5 min 0,000 mm 4,0 UV-I 1011 W/m 18,1 C 29,6 C 0,0 km/h (0 Bft) 0,00 %
06.07.2015 13:40 29,9 C 47 % 1017,0 hPa 0,0 l/m 0,0 km/h (0 Bft) N-NO 14 5 min 0,000 mm 5,0 UV-I 966 W/m 17,3 C 29,9 C 0,0 km/h (0 Bft) 0,00 %
06.07.2015 13:45 30,0 C 50 % 1017,1 hPa 0,0 l/m 0,0 km/h (0 Bft) O 84 5 min 0,000 mm 4,0 UV-I 934 W/m 18,4 C 30,0 C 0,0 km/h (0 Bft) 0,00 %
06.07.2015 13:50 30,0 C 49 % 1017,1 hPa 0,0 l/m 4,3 km/h (1 Bft) W 274 5 min 0,000 mm 3,0 UV-I 946 W/m 18,1 C 30,0 C 7,9 km/h (2 Bft) 0,00 %
06.07.2015 13:55 29,9 C 49 % 1017,1 hPa 0,0 l/m 1,8 km/h (1 Bft) O-NO 63 5 min 0,000 mm 3,0 UV-I 899 W/m 18,0 C 29,9 C 4,0 km/h (1 Bft) 0,00 %
06.07.2015 14:00 29,8 C 48 % 1017,0 hPa 0,0 l/m 0,0 km/h (0 Bft) NO 37 0 min 0,000 mm 3,0 UV-I 404 W/m 17,6 C 29,8 C 0,0 km/h (0 Bft) 0,00 %
06.07.2015 14:05 29,7 C 50 % 1017,1 hPa 0,0 l/m 0,0 km/h (0 Bft) N-NO 25 5 min 0,000 mm 5,0 UV-I 912 W/m 18,1 C 29,7 C 0,0 km/h (0 Bft) 0,00 %
06.07.2015 14:10 29,7 C 48 % 1016,9 hPa 0,0 l/m 0,0 km/h (0 Bft) NO 46 5 min 0,000 mm 5,0 UV-I 950 W/m 17,5 C 29,7 C 0,0 km/h (0 Bft) 0,00 %
06.07.2015 14:15 29,6 C 51 % 1017,0 hPa 0,0 l/m 9,4 km/h (2 Bft) W 271 5 min 0,000 mm 5,0 UV-I 984 W/m 18,4 C 29,3 C 11,9 km/h (2 Bft) 0,00 %
06.07.2015 14:20 29,6 C 48 % 1016,9 hPa 0,0 l/m 0,0 km/h (0 Bft) N 354 0 min 0,000 mm 5,0 UV-I 344 W/m 17,4 C 29,6 C 0,0 km/h (0 Bft) 0,00 %
06.07.2015 14:25 29,8 C 49 % 1017,1 hPa 0,0 l/m 1,8 km/h (1 Bft) W-SW 256 5 min 0,000 mm 5,0 UV-I 931 W/m 17,9 C 29,8 C 4,0 km/h (1 Bft) 0,00 %
06.07.2015 14:30 29,9 C 48 % 1017,0 hPa 0,0 l/m 5,4 km/h (1 Bft) NW 319 5 min 0,000 mm 4,0 UV-I 909 W/m 17,7 C 29,9 C 7,9 km/h (2 Bft) 0,00 %
06.07.2015 14:35 30,0 C 49 % 1017,0 hPa 0,0 l/m 5,4 km/h (1 Bft) NW 314 0 min 0,000 mm 2,0 UV-I 424 W/m 18,1 C 30,0 C 7,9 km/h (2 Bft) 0,00 %
06.07.2015 14:40 30,0 C 48 % 1017,0 hPa 0,0 l/m 0,0 km/h (0 Bft) N-NO 30 5 min 0,000 mm 4,0 UV-I 957 W/m 17,8 C 30,0 C 0,0 km/h (0 Bft) 0,00 %
06.07.2015 14:45 29,9 C 46 % 1016,9 hPa 0,0 l/m 0,0 km/h (0 Bft) S 191 5 min 0,000 mm 5,0 UV-I 943 W/m 17,0 C 29,9 C 0,0 km/h (0 Bft) 0,00 %
06.07.2015 14:50 30,0 C 46 % 1016,8 hPa 0,0 l/m 3,2 km/h (1 Bft) W 262 5 min 0,000 mm 4,0 UV-I 976 W/m 17,1 C 30,0 C 4,0 km/h (1 Bft) 0,00 %
06.07.2015 14:55 30,2 C 45 % 1016,8 hPa 0,0 l/m 0,0 km/h (0 Bft) NO 38 5 min 0,000 mm 4,0 UV-I 979 W/m 16,9 C 30,2 C 0,0 km/h (0 Bft) 0,00 %
06.07.2015 15:00 30,5 C 47 % 1016,8 hPa 0,0 l/m 3,2 km/h (1 Bft) SW 226 5 min 0,000 mm 4,0 UV-I 949 W/m 17,9 C 30,5 C 4,0 km/h (1 Bft) 0,00 %
06.07.2015 15:05 30,8 C 43 % 1016,6 hPa 0,0 l/m 0,7 km/h (0 Bft) S-SW 210 5 min 0,000 mm 4,0 UV-I 918 W/m 16,7 C 30,8 C 4,0 km/h (1 Bft) 0,00 %
06.07.2015 15:10 30,9 C 44 % 1016,6 hPa 0,0 l/m 2,9 km/h (1 Bft) NW 318 5 min 0,000 mm 4,0 UV-I 923 W/m 17,2 C 30,9 C 4,0 km/h (1 Bft) 0,00 %
06.07.2015 15:15 30,9 C 45 % 1016,5 hPa 0,0 l/m 0,4 km/h (0 Bft) NO 35 5 min 0,000 mm 4,0 UV-I 950 W/m 17,6 C 30,9 C 4,0 km/h (1 Bft) 0,00 %
06.07.2015 15:20 30,9 C 44 % 1016,5 hPa 0,0 l/m 3,2 km/h (1 Bft) W-NW 282 5 min 0,000 mm 2,0 UV-I 917 W/m 17,2 C 30,9 C 7,9 km/h (2 Bft) 0,00 %
06.07.2015 15:25 30,7 C 45 % 1016,3 hPa 0,0 l/m 0,0 km/h (0 Bft) N-NW 337 5 min 0,000 mm 4,0 UV-I 930 W/m 17,4 C 30,7 C 0,0 km/h (0 Bft) 0,00 %
06.07.2015 15:30 30,5 C 45 % 1016,6 hPa 0,0 l/m 3,2 km/h (1 Bft) W-SW 255 5 min 0,000 mm 4,0 UV-I 917 W/m 17,2 C 30,5 C 7,9 km/h (2 Bft) 0,00 %
06.07.2015 15:35 30,5 C 46 % 1016,6 hPa 0,0 l/m 0,0 km/h (0 Bft) N-NO 26 0 min 0,000 mm 4,0 UV-I 296 W/m 17,5 C 30,5 C 0,0 km/h (0 Bft) 0,00 %
06.07.2015 15:40 30,6 C 45 % 1016,5 hPa 0,0 l/m 0,0 km/h (0 Bft) NO 42 0 min 0,000 mm 2,0 UV-I 277 W/m 17,3 C 30,6 C 0,0 km/h (0 Bft) 0,00 %
06.07.2015 15:45 30,7 C 46 % 1016,5 hPa 0,0 l/m 0,0 km/h (0 Bft) N-NO 32 0 min 0,000 mm 2,0 UV-I 325 W/m 17,7 C 30,7 C 0,0 km/h (0 Bft) 0,00 %
06.07.2015 15:50 30,3 C 47 % 1016,3 hPa 0,0 l/m 0,0 km/h (0 Bft) NO 36 5 min 0,000 mm 2,0 UV-I 886 W/m 17,7 C 30,3 C 0,0 km/h (0 Bft) 0,00 %
06.07.2015 15:55 29,8 C 51 % 1016,4 hPa 0,0 l/m 0,0 km/h (0 Bft) NO 52 5 min 0,000 mm 3,0 UV-I 943 W/m 18,5 C 29,8 C 0,0 km/h (0 Bft) 0,00 %
06.07.2015 16:00 29,6 C 48 % 1016,6 hPa 0,0 l/m 0,0 km/h (0 Bft) O 96 5 min 0,000 mm 3,0 UV-I 941 W/m 17,4 C 29,6 C 0,0 km/h (0 Bft) 0,00 %
06.07.2015 16:05 30,0 C 45 % 1016,4 hPa 0,0 l/m 0,4 km/h (0 Bft) N-NW 332 5 min 0,000 mm 3,0 UV-I 954 W/m 16,7 C 30,0 C 4,0 km/h (1 Bft) 0,00 %
06.07.2015 16:10 30,6 C 43 % 1016,1 hPa 0,0 l/m 0,0 km/h (0 Bft) NO 37 5 min 0,000 mm 3,0 UV-I 906 W/m 16,6 C 30,6 C 0,0 km/h (0 Bft) 0,00 %
06.07.2015 16:15 31,1 C 43 % 1016,0 hPa 0,0 l/m 0,0 km/h (0 Bft) NO 42 0 min 0,000 mm 3,0 UV-I 302 W/m 17,0 C 31,1 C 0,0 km/h (0 Bft) 0,00 %
06.07.2015 16:20 31,1 C 42 % 1016,1 hPa 0,0 l/m 0,0 km/h (0 Bft) NO 55 5 min 0,000 mm 2,0 UV-I 825 W/m 16,6 C 31,1 C 0,0 km/h (0 Bft) 0,00 %
06.07.2015 16:25 30,5 C 47 % 1016,1 hPa 0,0 l/m 0,0 km/h (0 Bft) N 358 0 min 0,000 mm 2,0 UV-I 349 W/m 17,9 C 30,5 C 0,0 km/h (0 Bft) 0,00 %
06.07.2015 16:30 29,9 C 46 % 1016,1 hPa 0,0 l/m 1,4 km/h (1 Bft) N-NW 338 5 min 0,000 mm 2,0 UV-I 781 W/m 17,0 C 29,9 C 4,0 km/h (1 Bft) 0,00 %
06.07.2015 16:35 29,9 C 44 % 1016,2 hPa 0,0 l/m 0,0 km/h (0 Bft) N 7 5 min 0,000 mm 2,0 UV-I 840 W/m 16,3 C 29,9 C 0,0 km/h (0 Bft) 0,00 %
06.07.2015 16:40 30,1 C 44 % 1016,1 hPa 0,0 l/m 0,0 km/h (0 Bft) N 352 5 min 0,000 mm 3,0 UV-I 875 W/m 16,5 C 30,1 C 0,0 km/h (0 Bft) 0,00 %
06.07.2015 16:45 30,3 C 44 % 1015,8 hPa 0,0 l/m 0,0 km/h (0 Bft) NO 47 5 min 0,000 mm 3,0 UV-I 839 W/m 16,7 C 30,3 C 0,0 km/h (0 Bft) 0,00 %
06.07.2015 16:50 30,6 C 42 % 1015,9 hPa 0,0 l/m 1,4 km/h (1 Bft) SW 228 5 min 0,000 mm 2,0 UV-I 827 W/m 16,2 C 30,6 C 4,0 km/h (1 Bft) 0,00 %
06.07.2015 16:55 30,9 C 43 % 1016,0 hPa 0,0 l/m 2,2 km/h (1 Bft) SW 234 5 min 0,000 mm 2,0 UV-I 871 W/m 16,8 C 30,9 C 7,9 km/h (2 Bft) 0,00 %
06.07.2015 17:00 31,1 C 41 % 1015,8 hPa 0,0 l/m 1,4 km/h (1 Bft) W-NW 293 5 min 0,000 mm 2,0 UV-I 830 W/m 16,3 C 31,1 C 4,0 km/h (1 Bft) 0,00 %
06.07.2015 17:05 31,2 C 41 % 1015,8 hPa 0,0 l/m 0,4 km/h (0 Bft) N-NW 335 5 min 0,000 mm 2,0 UV-I 346 W/m 16,4 C 31,2 C 4,0 km/h (1 Bft) 0,00 %
06.07.2015 17:10 31,3 C 43 % 1015,6 hPa 0,0 l/m 0,0 km/h (0 Bft) NO 34 5 min 0,000 mm 2,0 UV-I 842 W/m 17,2 C 31,3 C 0,0 km/h (0 Bft) 0,00 %
06.07.2015 17:15 31,2 C 41 % 1015,8 hPa 0,0 l/m 0,0 km/h (0 Bft) NO 34 5 min 0,000 mm 2,0 UV-I 852 W/m 16,4 C 31,2 C 0,0 km/h (0 Bft) 0,00 %
06.07.2015 17:20 31,0 C 42 % 1015,5 hPa 0,0 l/m 0,0 km/h (0 Bft) NO 38 5 min 0,000 mm 2,0 UV-I 808 W/m 16,6 C 31,0 C 0,0 km/h (0 Bft) 0,00 %
06.07.2015 17:25 31,0 C 45 % 1015,5 hPa 0,0 l/m 0,0 km/h (0 Bft) N-NO 26 5 min 0,000 mm 2,0 UV-I 574 W/m 17,6 C 31,0 C 0,0 km/h (0 Bft) 0,00 %
06.07.2015 17:30 30,8 C 43 % 1015,4 hPa 0,0 l/m 0,0 km/h (0 Bft) N-NW 346 5 min 0,000 mm 2,0 UV-I 770 W/m 16,7 C 30,8 C 0,0 km/h (0 Bft) 0,00 %
06.07.2015 17:35 30,6 C 43 % 1015,5 hPa 0,0 l/m 1,8 km/h (1 Bft) N-NW 347 5 min 0,000 mm 2,0 UV-I 778 W/m 16,6 C 30,6 C 4,0 km/h (1 Bft) 0,00 %
06.07.2015 17:40 30,7 C 42 % 1015,6 hPa 0,0 l/m 0,0 km/h (0 Bft) N 355 5 min 0,000 mm 2,0 UV-I 794 W/m 16,3 C 30,7 C 0,0 km/h (0 Bft) 0,00 %
06.07.2015 17:45 30,9 C 41 % 1015,3 hPa 0,0 l/m 0,0 km/h (0 Bft) O-NO 70 5 min 0,000 mm 2,0 UV-I 764 W/m 16,1 C 30,9 C 0,0 km/h (0 Bft) 0,00 %
06.07.2015 17:50 31,2 C 41 % 1015,1 hPa 0,0 l/m 0,0 km/h (0 Bft) N-NW 347 5 min 0,000 mm 2,0 UV-I 703 W/m 16,4 C 31,2 C 0,0 km/h (0 Bft) 0,00 %
06.07.2015 17:55 31,5 C 42 % 1014,9 hPa 0,0 l/m 0,0 km/h (0 Bft) NO 34 5 min 0,000 mm 1,0 UV-I 678 W/m 17,0 C 31,5 C 0,0 km/h (0 Bft) 0,00 %
06.07.2015 18:00 31,9 C 42 % 1014,9 hPa 0,0 l/m 0,0 km/h (0 Bft) N-NO 20 5 min 0,000 mm 1,0 UV-I 678 W/m 17,4 C 31,9 C 0,0 km/h (0 Bft) 0,00 %
06.07.2015 18:05 32,0 C 40 % 1014,8 hPa 0,0 l/m 0,0 km/h (0 Bft) N-NO 16 5 min 0,000 mm 1,0 UV-I 664 W/m 16,7 C 32,0 C 0,0 km/h (0 Bft) 0,00 %
06.07.2015 18:10 31,7 C 41 % 1014,8 hPa 0,0 l/m 0,0 km/h (0 Bft) N-NO 13 5 min 0,000 mm 1,0 UV-I 623 W/m 16,8 C 31,7 C 0,0 km/h (0 Bft) 0,00 %
06.07.2015 18:15 31,4 C 40 % 1015,0 hPa 0,0 l/m 0,4 km/h (0 Bft) W 270 5 min 0,000 mm 1,0 UV-I 586 W/m 16,1 C 31,4 C 4,0 km/h (1 Bft) 0,00 %
06.07.2015 18:20 31,3 C 40 % 1015,0 hPa 0,0 l/m 0,0 km/h (0 Bft) N-NW 345 5 min 0,000 mm 1,0 UV-I 576 W/m 16,1 C 31,3 C 0,0 km/h (0 Bft) 0,00 %
06.07.2015 18:25 31,4 C 41 % 1014,9 hPa 0,0 l/m 0,4 km/h (0 Bft) NO 51 5 min 0,000 mm 1,0 UV-I 563 W/m 16,5 C 31,4 C 4,0 km/h (1 Bft) 0,00 %
06.07.2015 18:30 31,3 C 40 % 1015,1 hPa 0,0 l/m 0,0 km/h (0 Bft) NO 34 5 min 0,000 mm 1,0 UV-I 547 W/m 16,1 C 31,3 C 0,0 km/h (0 Bft) 0,00 %
06.07.2015 18:35 31,3 C 42 % 1015,0 hPa 0,0 l/m 0,7 km/h (0 Bft) N 355 5 min 0,000 mm 1,0 UV-I 523 W/m 16,8 C 31,3 C 4,0 km/h (1 Bft) 0,00 %
06.07.2015 18:40 31,1 C 41 % 1015,2 hPa 0,0 l/m 0,0 km/h (0 Bft) NO 41 5 min 0,000 mm 1,0 UV-I 496 W/m 16,3 C 31,1 C 0,0 km/h (0 Bft) 0,00 %
06.07.2015 18:45 31,0 C 43 % 1014,9 hPa 0,0 l/m 0,0 km/h (0 Bft) NO 47 5 min 0,000 mm 1,0 UV-I 474 W/m 16,9 C 31,0 C 0,0 km/h (0 Bft) 0,00 %
06.07.2015 18:50 30,9 C 42 % 1014,9 hPa 0,0 l/m 0,4 km/h (0 Bft) NO 34 5 min 0,000 mm 1,0 UV-I 448 W/m 16,5 C 30,9 C 4,0 km/h (1 Bft) 0,00 %
06.07.2015 18:55 30,8 C 42 % 1014,9 hPa 0,0 l/m 0,0 km/h (0 Bft) SW 225 5 min 0,000 mm 1,0 UV-I 387 W/m 16,4 C 30,8 C 0,0 km/h (0 Bft) 0,00 %
06.07.2015 19:00 30,8 C 43 % 1014,9 hPa 0,0 l/m 0,0 km/h (0 Bft) NO 53 5 min 0,000 mm 1,0 UV-I 373 W/m 16,7 C 30,8 C 0,0 km/h (0 Bft) 0,00 %
06.07.2015 19:05 31,0 C 42 % 1015,0 hPa 0,0 l/m 0,0 km/h (0 Bft) NO 36 5 min 0,000 mm 1,0 UV-I 351 W/m 16,6 C 31,0 C 0,0 km/h (0 Bft) 0,00 %
06.07.2015 19:10 31,0 C 43 % 1015,0 hPa 0,0 l/m 0,0 km/h (0 Bft) NO 49 5 min 0,000 mm 1,0 UV-I 335 W/m 16,9 C 31,0 C 0,0 km/h (0 Bft) 0,00 %
06.07.2015 19:15 30,7 C 45 % 1014,9 hPa 0,0 l/m 0,0 km/h (0 Bft) O-NO 58 5 min 0,000 mm 1,0 UV-I 311 W/m 17,4 C 30,7 C 0,0 km/h (0 Bft) 0,00 %
06.07.2015 19:20 30,5 C 44 % 1015,0 hPa 0,0 l/m 0,4 km/h (0 Bft) N 349 5 min 0,000 mm 1,0 UV-I 278 W/m 16,8 C 30,5 C 4,0 km/h (1 Bft) 0,00 %
06.07.2015 19:25 30,4 C 44 % 1015,2 hPa 0,0 l/m 0,0 km/h (0 Bft) NO 36 5 min 0,000 mm 1,0 UV-I 244 W/m 16,7 C 30,4 C 0,0 km/h (0 Bft) 0,00 %
06.07.2015 19:30 30,4 C 43 % 1014,9 hPa 0,0 l/m 0,0 km/h (0 Bft) N 0 5 min 0,000 mm 1,0 UV-I 212 W/m 16,4 C 30,4 C 0,0 km/h (0 Bft) 0,00 %
06.07.2015 19:35 30,5 C 44 % 1015,1 hPa 0,0 l/m 0,0 km/h (0 Bft) N 6 5 min 0,000 mm 1,0 UV-I 194 W/m 16,8 C 30,5 C 0,0 km/h (0 Bft) 0,00 %
06.07.2015 19:40 30,4 C 48 % 1015,1 hPa 0,0 l/m 0,0 km/h (0 Bft) NW 318 5 min 0,000 mm 1,0 UV-I 188 W/m 18,1 C 30,4 C 0,0 km/h (0 Bft) 0,00 %
06.07.2015 19:45 30,2 C 45 % 1014,9 hPa 0,0 l/m 0,0 km/h (0 Bft) N-NO 26 5 min 0,000 mm 1,0 UV-I 166 W/m 16,9 C 30,2 C 0,0 km/h (0 Bft) 0,00 %
06.07.2015 19:50 30,0 C 45 % 1015,0 hPa 0,0 l/m 0,0 km/h (0 Bft) NO 38 5 min 0,000 mm 0,0 UV-I 144 W/m 16,7 C 30,0 C 0,0 km/h (0 Bft) 0,00 %
06.07.2015 19:55 30,0 C 46 % 1014,9 hPa 0,0 l/m 0,0 km/h (0 Bft) N-NO 31 5 min 0,000 mm 0,0 UV-I 107 W/m 17,1 C 30,0 C 0,0 km/h (0 Bft) 0,00 %
06.07.2015 20:00 29,9 C 47 % 1015,0 hPa 0,0 l/m 0,0 km/h (0 Bft) NO 36 5 min 0,000 mm 0,0 UV-I 87 W/m 17,3 C 29,9 C 0,0 km/h (0 Bft) 0,00 %
06.07.2015 20:05 29,9 C 47 % 1015,1 hPa 0,0 l/m 0,0 km/h (0 Bft) NO 36 0 min 0,000 mm 0,0 UV-I 69 W/m 17,3 C 29,9 C 0,0 km/h (0 Bft) 0,00 %
06.07.2015 20:10 29,8 C 48 % 1015,0 hPa 0,0 l/m 0,0 km/h (0 Bft) NO 36 0 min 0,000 mm 0,0 UV-I 54 W/m 17,6 C 29,8 C 0,0 km/h (0 Bft) 0,00 %
06.07.2015 20:15 29,7 C 48 % 1015,1 hPa 0,0 l/m 0,0 km/h (0 Bft) NO 36 0 min 0,000 mm 0,0 UV-I 35 W/m 17,5 C 29,7 C 0,0 km/h (0 Bft) 0,00 %
06.07.2015 20:20 29,6 C 48 % 1015,0 hPa 0,0 l/m 0,0 km/h (0 Bft) NO 38 0 min 0,000 mm 0,0 UV-I 26 W/m 17,4 C 29,6 C 0,0 km/h (0 Bft) 0,00 %
06.07.2015 20:25 29,3 C 48 % 1015,1 hPa 0,0 l/m 0,0 km/h (0 Bft) NO 42 0 min 0,000 mm 0,0 UV-I 10 W/m 17,1 C 29,3 C 0,0 km/h (0 Bft) 0,00 %
06.07.2015 20:30 28,9 C 51 % 1015,2 hPa 0,0 l/m 0,0 km/h (0 Bft) NO 50 0 min 0,000 mm 0,0 UV-I 5 W/m 17,7 C 28,9 C 0,0 km/h (0 Bft) 0,00 %
06.07.2015 20:35 28,6 C 53 % 1015,1 hPa 0,0 l/m 0,0 km/h (0 Bft) NO 44 0 min 0,000 mm 0,0 UV-I 1 W/m 18,1 C 28,6 C 0,0 km/h (0 Bft) 0,00 %
06.07.2015 20:40 28,2 C 55 % 1015,3 hPa 0,0 l/m 0,0 km/h (0 Bft) NO 50 0 min 0,000 mm 0,0 UV-I 0 W/m 18,3 C 28,2 C 0,0 km/h (0 Bft) 0,00 %
06.07.2015 20:45 27,6 C 57 % 1015,4 hPa 0,0 l/m 0,0 km/h (0 Bft) NO 54 0 min 0,000 mm 0,0 UV-I 0 W/m 18,3 C 27,6 C 0,0 km/h (0 Bft) 0,00 %
06.07.2015 20:50 27,1 C 59 % 1015,4 hPa 0,0 l/m 0,0 km/h (0 Bft) NO 52 0 min 0,000 mm 0,0 UV-I 0 W/m 18,4 C 27,1 C 0,0 km/h (0 Bft) 0,00 %
06.07.2015 20:55 26,7 C 59 % 1015,5 hPa 0,0 l/m 0,0 km/h (0 Bft) NO 55 0 min 0,000 mm 0,0 UV-I 0 W/m 18,0 C 26,7 C 0,0 km/h (0 Bft) 0,00 %
06.07.2015 21:00 26,2 C 61 % 1015,6 hPa 0,0 l/m 0,0 km/h (0 Bft) NO 52 0 min 0,000 mm 0,0 UV-I 0 W/m 18,1 C 26,2 C 0,0 km/h (0 Bft) 0,00 %
06.07.2015 21:05 26,0 C 62 % 1015,6 hPa 0,0 l/m 0,0 km/h (0 Bft) NO 51 0 min 0,000 mm 0,0 UV-I 0 W/m 18,1 C 26,0 C 0,0 km/h (0 Bft) 0,00 %
06.07.2015 21:10 25,6 C 64 % 1015,7 hPa 0,0 l/m 0,0 km/h (0 Bft) O-NO 60 0 min 0,000 mm 0,0 UV-I 0 W/m 18,3 C 25,6 C 0,0 km/h (0 Bft) 0,00 %
06.07.2015 21:15 25,4 C 64 % 1015,7 hPa 0,0 l/m 0,0 km/h (0 Bft) NO 52 0 min 0,000 mm 0,0 UV-I 0 W/m 18,1 C 25,4 C 0,0 km/h (0 Bft) 0,00 %
06.07.2015 21:20 25,1 C 67 % 1015,8 hPa 0,0 l/m 0,0 km/h (0 Bft) NO 52 0 min 0,000 mm 0,0 UV-I 0 W/m 18,5 C 25,1 C 0,0 km/h (0 Bft) 0,00 %
06.07.2015 21:25 24,9 C 68 % 1015,9 hPa 0,0 l/m 0,0 km/h (0 Bft) NO 50 0 min 0,000 mm 0,0 UV-I 0 W/m 18,6 C 24,9 C 0,0 km/h (0 Bft) 0,00 %
06.07.2015 21:30 24,7 C 70 % 1015,8 hPa 0,0 l/m 0,0 km/h (0 Bft) NO 50 0 min 0,000 mm 0,0 UV-I 0 W/m 18,8 C 24,7 C 0,0 km/h (0 Bft) 0,00 %
06.07.2015 21:35 24,5 C 71 % 1016,0 hPa 0,0 l/m 0,0 km/h (0 Bft) NO 50 0 min 0,000 mm 0,0 UV-I 0 W/m 18,9 C 24,5 C 0,0 km/h (0 Bft) 0,00 %
06.07.2015 21:40 24,3 C 73 % 1015,9 hPa 0,0 l/m 0,0 km/h (0 Bft) NO 49 0 min 0,000 mm 0,0 UV-I 0 W/m 19,1 C 24,3 C 0,0 km/h (0 Bft) 0,00 %
06.07.2015 21:45 24,1 C 74 % 1016,1 hPa 0,0 l/m 0,0 km/h (0 Bft) NO 49 0 min 0,000 mm 0,0 UV-I 0 W/m 19,2 C 24,1 C 0,0 km/h (0 Bft) 0,00 %
06.07.2015 21:50 24,0 C 74 % 1016,2 hPa 0,0 l/m 0,0 km/h (0 Bft) NO 49 0 min 0,000 mm 0,0 UV-I 0 W/m 19,1 C 24,0 C 0,0 km/h (0 Bft) 0,00 %
06.07.2015 21:55 23,9 C 74 % 1016,3 hPa 0,0 l/m 0,0 km/h (0 Bft) NO 49 0 min 0,000 mm 0,0 UV-I 0 W/m 19,0 C 23,9 C 0,0 km/h (0 Bft) 0,00 %
06.07.2015 22:00 23,5 C 75 % 1016,4 hPa 0,0 l/m 0,0 km/h (0 Bft) NO 51 0 min 0,000 mm 0,0 UV-I 0 W/m 18,8 C 23,5 C 0,0 km/h (0 Bft) 0,00 %
06.07.2015 22:05 23,4 C 75 % 1016,4 hPa 0,0 l/m 0,0 km/h (0 Bft) NO 43 0 min 0,000 mm 0,0 UV-I 0 W/m 18,7 C 23,4 C 0,0 km/h (0 Bft) 0,00 %
06.07.2015 22:10 23,1 C 75 % 1016,3 hPa 0,0 l/m 0,0 km/h (0 Bft) NO 50 0 min 0,000 mm 0,0 UV-I 0 W/m 18,4 C 23,1 C 0,0 km/h (0 Bft) 0,00 %
06.07.2015 22:15 23,0 C 75 % 1016,3 hPa 0,0 l/m 0,0 km/h (0 Bft) O-NO 78 0 min 0,000 mm 0,0 UV-I 0 W/m 18,3 C 23,0 C 0,0 km/h (0 Bft) 0,00 %
06.07.2015 22:20 22,9 C 76 % 1016,6 hPa 0,0 l/m 0,0 km/h (0 Bft) O-NO 58 0 min 0,000 mm 0,0 UV-I 0 W/m 18,4 C 22,9 C 0,0 km/h (0 Bft) 0,00 %
06.07.2015 22:25 22,9 C 77 % 1016,5 hPa 0,0 l/m 0,0 km/h (0 Bft) O-NO 58 0 min 0,000 mm 0,0 UV-I 0 W/m 18,6 C 22,9 C 0,0 km/h (0 Bft) 0,00 %
06.07.2015 22:30 22,8 C 78 % 1016,5 hPa 0,0 l/m 0,0 km/h (0 Bft) NO 41 0 min 0,000 mm 0,0 UV-I 0 W/m 18,8 C 22,8 C 0,0 km/h (0 Bft) 0,00 %
06.07.2015 22:35 22,8 C 78 % 1016,5 hPa 0,0 l/m 0,0 km/h (0 Bft) NO 41 0 min 0,000 mm 0,0 UV-I 0 W/m 18,8 C 22,8 C 0,0 km/h (0 Bft) 0,00 %
06.07.2015 22:40 22,7 C 79 % 1016,4 hPa 0,0 l/m 0,0 km/h (0 Bft) NO 41 0 min 0,000 mm 0,0 UV-I 0 W/m 18,9 C 22,7 C 0,0 km/h (0 Bft) 0,00 %
06.07.2015 22:45 22,6 C 79 % 1016,5 hPa 0,0 l/m 0,0 km/h (0 Bft) NO 41 0 min 0,000 mm 0,0 UV-I 0 W/m 18,8 C 22,6 C 0,0 km/h (0 Bft) 0,00 %
06.07.2015 22:50 22,4 C 79 % 1016,4 hPa 0,0 l/m 0,0 km/h (0 Bft) NO 54 0 min 0,000 mm 0,0 UV-I 0 W/m 18,6 C 22,4 C 0,0 km/h (0 Bft) 0,00 %
06.07.2015 22:55 22,3 C 80 % 1016,2 hPa 0,0 l/m 0,0 km/h (0 Bft) NO 53 0 min 0,000 mm 0,0 UV-I 0 W/m 18,7 C 22,3 C 0,0 km/h (0 Bft) 0,00 %
06.07.2015 23:00 22,2 C 81 % 1016,4 hPa 0,0 l/m 0,0 km/h (0 Bft) NO 53 0 min 0,000 mm 0,0 UV-I 0 W/m 18,8 C 22,2 C 0,0 km/h (0 Bft) 0,00 %
06.07.2015 23:05 22,1 C 80 % 1016,6 hPa 0,0 l/m 0,0 km/h (0 Bft) NO 53 0 min 0,000 mm 0,0 UV-I 0 W/m 18,5 C 22,1 C 0,0 km/h (0 Bft) 0,00 %
06.07.2015 23:10 22,0 C 80 % 1016,6 hPa 0,0 l/m 0,0 km/h (0 Bft) NO 52 0 min 0,000 mm 0,0 UV-I 0 W/m 18,4 C 22,0 C 0,0 km/h (0 Bft) 0,00 %
06.07.2015 23:15 21,9 C 81 % 1016,7 hPa 0,0 l/m 0,0 km/h (0 Bft) NO 50 0 min 0,000 mm 0,0 UV-I 0 W/m 18,5 C 21,9 C 0,0 km/h (0 Bft) 0,00 %
06.07.2015 23:20 21,8 C 80 % 1016,5 hPa 0,0 l/m 0,0 km/h (0 Bft) NO 50 0 min 0,000 mm 0,0 UV-I 0 W/m 18,2 C 21,8 C 0,0 km/h (0 Bft) 0,00 %
06.07.2015 23:25 21,7 C 80 % 1016,5 hPa 0,0 l/m 0,0 km/h (0 Bft) NO 49 0 min 0,000 mm 0,0 UV-I 0 W/m 18,1 C 21,7 C 0,0 km/h (0 Bft) 0,00 %
06.07.2015 23:30 21,6 C 81 % 1016,4 hPa 0,0 l/m 0,0 km/h (0 Bft) NO 49 0 min 0,000 mm 0,0 UV-I 0 W/m 18,2 C 21,6 C 0,0 km/h (0 Bft) 0,00 %
06.07.2015 23:35 21,6 C 81 % 1016,5 hPa 0,0 l/m 0,0 km/h (0 Bft) NO 49 0 min 0,000 mm 0,0 UV-I 0 W/m 18,2 C 21,6 C 0,0 km/h (0 Bft) 0,00 %
06.07.2015 23:40 21,5 C 81 % 1016,7 hPa 0,0 l/m 0,0 km/h (0 Bft) NO 49 0 min 0,000 mm 0,0 UV-I 0 W/m 18,1 C 21,5 C 0,0 km/h (0 Bft) 0,00 %
06.07.2015 23:45 21,4 C 82 % 1016,8 hPa 0,0 l/m 0,0 km/h (0 Bft) NO 49 0 min 0,000 mm 0,0 UV-I 0 W/m 18,2 C 21,4 C 0,0 km/h (0 Bft) 0,00 %
06.07.2015 23:50 21,3 C 82 % 1016,6 hPa 0,0 l/m 0,0 km/h (0 Bft) NO 49 0 min 0,000 mm 0,0 UV-I 0 W/m 18,1 C 21,3 C 0,0 km/h (0 Bft) 0,00 %
06.07.2015 23:55 21,2 C 83 % 1016,7 hPa 0,0 l/m 0,0 km/h (0 Bft) NO 56 0 min 0,000 mm 0,0 UV-I 0 W/m 18,2 C 21,2 C 0,0 km/h (0 Bft) 0,00 %
_ Min-Zeit 05:05 18:05 00:10 - 00:00 - - - - - - 05:35 05:05 00:00 00:00
Minimum _ 17,4 C 40 % 1012,2 hPa - 0,0 km/h (0 Bft) - - - - - - 14,3 C 17,4 C 0,0 km/h (0 Bft) 0,00 %
_ Max-Zeit 18:05 04:10 09:45 00:00 07:55 - - 06:00 00:00 11:50 13:25 21:45 18:05 07:55 00:00
Maximum _ 32,0 C 87 % 1019,3 hPa 0,0 l/m 17,3 km/h
W-NW (3 Bft)
- - 5 min 0,000 mm 5,0 UV-I 1028 W/m 19,2 C 32,0 C 24,1 km/h
W-NW (4 Bft)
0,00 %
Durchschnitt _ 24,6 C 64 % 1015,9 hPa #0,0 l/m 1,8 km/h (1 Bft) W-NW - #9:35 h #0,000 mm 2,3 UV-I 467 W/m 16,8 C 24,5 C 3,2 km/h (1 Bft) 0,00 %